Weather History for Madisonville, KY

Change the Weather History Date:

Saturday, June 8, 2013

  Actual Average (KOWB) Record (KOWB)
Temperature  
Mean Temperature 72 °F -  
Max Temperature 82 °F 84 °F 98 °F (1963)
Min Temperature 63 °F 61 °F 49 °F (1977)
Cooling Degree Days 8    
Growing Degree Days 22 (Base 50)    
Moisture  
Dew Point 63 °F    
Average Humidity 74    
Maximum Humidity 99    
Minimum Humidity 41    
Precipitation  
Precipitation 0.00 in - - ()
Sea Level Pressure  
Sea Level Pressure 29.95 in    
Wind  
Wind Speed 3 mph (West)    
Max Wind Speed 9 mph    
Max Gust Speed -    
Visibility 8 miles    
Events      
Averages and records for this station are not official NWS values.
T = Trace of Precipitation, MM = Missing Value Source: NWS Daily Summary

Daily Weather History Graph

Daily Weather History Graph

Search for Another Location

Airport:

Trip Planner

Search our weather history database for the weather conditions in past years. The results will help you decide how hot, cold, wet, or windy it might be!

Date:

Astronomy

Jun. 08, 2013 Rise Set
Actual Time 5:28 AM CDT 8:08 PM CDT
Civil Twilight 4:57 AM CDT 8:39 PM CDT
Nautical Twilight 4:19 AM CDT 9:18 PM CDT
Astronomical Twilight 3:36 AM CDT 10:01 PM CDT
Moon 5:34 AM CDT (6/8) 8:12 PM CDT (6/8)
Length of Visible Light 15h 41m
Length of Day
14h 40m
New Moon, 0% of the Moon is Illuminated
Jun 8
New Moon
Jun 16
First Quarter
Jun 23
Full
Jun 29
Last Quarter
Jul 8
New

Hourly Weather History & Observations

Time (CDT) Temp. Heat Index Dew Point Humidity Pressure Visibility Wind Dir Wind Speed Gust Speed Precip Events Conditions
12:15 AM 68.5 °F - 66.2 °F 92% 29.88 in 7.0 mi NNW 3.5 mph - N/A   Mostly Cloudy
12:35 AM 68.9 °F - 65.8 °F 90% 29.88 in 7.0 mi Calm Calm - N/A   Overcast
12:55 AM 68.0 °F - 66.0 °F 93% 29.88 in 7.0 mi West 4.6 mph - N/A   Overcast
1:15 AM 67.3 °F - 65.7 °F 95% 29.88 in 5.0 mi Calm Calm - N/A   Scattered Clouds
1:35 AM 66.7 °F - 65.5 °F 96% 29.88 in 5.0 mi West 3.5 mph - N/A   Scattered Clouds
1:55 AM 66.7 °F - 65.3 °F 95% 29.87 in 5.0 mi Calm Calm - N/A   Scattered Clouds
2:15 AM 65.8 °F - 64.6 °F 96% 29.88 in 5.0 mi Calm Calm - N/A   Clear
2:35 AM 66.2 °F - 64.6 °F 94% 29.88 in 5.0 mi Calm Calm - N/A   Mostly Cloudy
2:55 AM 65.7 °F - 64.6 °F 96% 29.88 in 5.0 mi WNW 3.5 mph - N/A   Overcast
3:15 AM 65.7 °F - 64.6 °F 96% 29.89 in 5.0 mi West 3.5 mph - N/A   Overcast
3:35 AM 65.5 °F - 64.4 °F 96% 29.89 in 5.0 mi West 3.5 mph - N/A   Overcast
3:55 AM 65.3 °F - 64.4 °F 97% 29.89 in 5.0 mi WNW 3.5 mph - N/A   Mostly Cloudy
4:15 AM 64.9 °F - 64.0 °F 97% 29.90 in 5.0 mi WNW 3.5 mph - N/A   Scattered Clouds
4:35 AM 65.3 °F - 64.0 °F 96% 29.90 in 5.0 mi Calm Calm - N/A   Mostly Cloudy
4:55 AM 64.9 °F - 63.9 °F 96% 29.91 in 5.0 mi WNW 3.5 mph - N/A   Scattered Clouds
5:15 AM 64.6 °F - 63.7 °F 97% 29.91 in 5.0 mi WNW 3.5 mph - N/A   Clear
5:35 AM 64.4 °F - 63.1 °F 96% 29.91 in 4.0 mi Calm Calm - N/A   Clear
5:55 AM 63.7 °F - 63.1 °F 98% 29.92 in 3.0 mi WNW 3.5 mph - N/A   Clear
6:15 AM 63.9 °F - 63.5 °F 99% 29.93 in 3.0 mi Calm Calm - N/A   Clear
6:35 AM 64.8 °F - 64.0 °F 98% 29.93 in 3.0 mi West 3.5 mph - N/A   Clear
6:55 AM 65.7 °F - 64.4 °F 96% 29.94 in 4.0 mi Calm Calm - N/A   Clear
7:15 AM 66.6 °F - 64.8 °F 94% 29.94 in 4.0 mi Calm Calm - N/A   Clear
7:35 AM 67.6 °F - 65.1 °F 92% 29.95 in 5.0 mi NW 3.5 mph - N/A   Clear
7:55 AM 68.9 °F - 65.3 °F 88% 29.96 in 5.0 mi Calm Calm - N/A   Clear
8:15 AM 69.6 °F - 65.3 °F 86% 29.96 in 7.0 mi Calm Calm - N/A   Clear
8:35 AM 70.7 °F - 65.3 °F 83% 29.97 in 7.0 mi Calm Calm - N/A   Clear
8:55 AM 72.1 °F - 65.5 °F 79% 29.98 in 7.0 mi Calm Calm - N/A   Scattered Clouds
9:15 AM 72.7 °F - 64.9 °F 77% 29.98 in 7.0 mi Calm Calm - N/A   Scattered Clouds
9:35 AM 73.4 °F - 65.1 °F 75% 29.98 in 7.0 mi Calm Calm - N/A   Clear
9:55 AM 74.3 °F - 65.7 °F 74% 29.98 in 7.0 mi West 6.9 mph - N/A   Clear
10:15 AM 75.4 °F - 65.7 °F 72% 29.98 in 7.0 mi West 6.9 mph - N/A   Mostly Cloudy
10:35 AM 75.4 °F - 65.5 °F 71% 29.99 in 7.0 mi WNW 8.1 mph - N/A   Mostly Cloudy
10:55 AM 76.8 °F - 66.0 °F 69% 29.99 in 10.0 mi NW 5.8 mph - N/A   Mostly Cloudy
11:15 AM 77.0 °F - 64.6 °F 65% 29.99 in 10.0 mi WNW 5.8 mph - N/A   Scattered Clouds
11:35 AM 77.9 °F - 64.4 °F 63% 29.98 in 10.0 mi WSW 4.6 mph - N/A   Clear
11:55 AM 77.9 °F - 63.3 °F 61% 29.98 in 10.0 mi NW 3.5 mph - N/A   Scattered Clouds
12:15 PM 78.3 °F - 64.0 °F 61% 29.98 in 10.0 mi WSW 6.9 mph - N/A   Scattered Clouds
12:35 PM 78.6 °F - 62.6 °F 58% 29.98 in 10.0 mi NW 4.6 mph - N/A   Scattered Clouds
12:55 PM 78.6 °F - 62.4 °F 57% 29.97 in 10.0 mi West 3.5 mph - N/A   Scattered Clouds
1:15 PM 80.2 °F 81.8 °F 63.7 °F 57% 29.97 in 10.0 mi West 5.8 mph - N/A   Scattered Clouds
1:35 PM 80.8 °F 81.4 °F 60.1 °F 49% 29.96 in 7.0 mi WSW 6.9 mph - N/A   Scattered Clouds
1:55 PM 80.6 °F 81.2 °F 59.7 °F 49% 29.96 in 10.0 mi SSW 6.9 mph - N/A   Clear
2:15 PM 79.7 °F - 59.7 °F 50% 29.96 in 10.0 mi WNW 4.6 mph - N/A   Scattered Clouds
2:35 PM 81.7 °F 81.9 °F 59.2 °F 46% 29.96 in 10.0 mi SW 9.2 mph - N/A   Scattered Clouds
2:55 PM 82.2 °F 81.8 °F 56.7 °F 41% 29.96 in 10.0 mi SW 6.9 mph - N/A   Scattered Clouds
3:15 PM 80.4 °F 81.1 °F 59.4 °F 49% 29.96 in 10.0 mi SSW 6.9 mph - N/A   Scattered Clouds
3:35 PM 82.0 °F 82.2 °F 59.5 °F 46% 29.96 in 10.0 mi SW 8.1 mph - N/A   Scattered Clouds
3:55 PM 80.4 °F 80.9 °F 58.6 °F 47% 29.96 in 10.0 mi SW 6.9 mph - N/A   Clear
4:15 PM 81.7 °F 81.9 °F 58.8 °F 46% 29.96 in 10.0 mi South 4.6 mph - N/A   Clear
4:35 PM 82.4 °F 82.3 °F 58.6 °F 44% 29.96 in 10.0 mi SSW 4.6 mph - N/A   Scattered Clouds
4:55 PM 80.6 °F 80.8 °F 57.7 °F 45% 29.96 in 10.0 mi SW 5.8 mph - N/A   Scattered Clouds
5:15 PM 81.7 °F 81.6 °F 58.1 °F 44% 29.96 in 10.0 mi SW 6.9 mph - N/A   Scattered Clouds
5:35 PM 81.9 °F 81.7 °F 57.2 °F 43% 29.96 in 10.0 mi WSW 8.1 mph - N/A   Clear
5:55 PM 81.5 °F 81.5 °F 57.9 °F 44% 29.96 in 10.0 mi SW 9.2 mph - N/A   Clear
6:15 PM 80.8 °F 81.1 °F 58.5 °F 46% 29.96 in 10.0 mi SW 8.1 mph - N/A   Clear
6:35 PM 80.2 °F 80.8 °F 59.2 °F 48% 29.97 in 10.0 mi SSW 4.6 mph - N/A   Clear
6:55 PM 79.2 °F - 59.7 °F 51% 29.97 in 10.0 mi SW 5.8 mph - N/A   Scattered Clouds
7:15 PM 78.3 °F - 60.4 °F 54% 29.98 in 10.0 mi SW 5.8 mph - N/A   Scattered Clouds
7:35 PM 77.0 °F - 61.5 °F 59% 29.98 in 10.0 mi SW 4.6 mph - N/A   Scattered Clouds
7:55 PM 75.4 °F - 64.6 °F 69% 29.98 in 10.0 mi Calm Calm - N/A   Mostly Cloudy
8:15 PM 75.2 °F - 63.0 °F 66% 29.98 in 10.0 mi Calm Calm - N/A   Overcast
8:35 PM 74.7 °F - 63.3 °F 68% 29.98 in 10.0 mi Calm Calm - N/A   Mostly Cloudy
8:55 PM 73.2 °F - 64.0 °F 73% 30.00 in 10.0 mi Calm Calm - N/A   Mostly Cloudy
9:15 PM 72.0 °F - 64.4 °F 77% 30.00 in 10.0 mi Calm Calm - N/A   Scattered Clouds
9:35 PM 71.2 °F - 65.3 °F 81% 30.01 in 10.0 mi Calm Calm - N/A   Scattered Clouds
9:55 PM 69.8 °F - 65.3 °F 86% 30.01 in 10.0 mi Calm Calm - N/A   Clear
10:15 PM 70.0 °F - 64.4 °F 82% 30.01 in 10.0 mi Calm Calm - N/A   Clear
10:35 PM 68.5 °F - 65.3 °F 89% 30.00 in 10.0 mi Calm Calm - N/A   Clear
10:55 PM 67.8 °F - 65.5 °F 92% 30.01 in 10.0 mi Calm Calm - N/A   Clear
11:15 PM 67.6 °F - 64.9 °F 91% 30.01 in 10.0 mi Calm Calm - N/A   Clear
11:35 PM 68.0 °F - 64.4 °F 88% 30.02 in 10.0 mi Calm Calm - N/A   Clear
11:55 PM 66.7 °F - 64.8 °F 93% 30.02 in 10.0 mi Calm Calm - N/A   Scattered Clouds